Time,TemperatureF,DewpointF,PressureIn,WindDirection,WindDirectionDegrees,WindSpeedMPH,WindSpeedGustMPH,Humidity,HourlyPrecipIn,Conditions,Clouds,dailyrainin,SoftwareType,DateUTC
2013-09-25 00:00:00,78.4,72.8,29.92,NW,322,0.0,4.0,83,0.00,,---,0.21,VWS V14.01,2013-09-25 04:00:00,
2013-09-25 00:01:00,78.4,73.2,29.92,West,278,2.0,4.0,84,0.00,,---,0.21,VWS V14.01,2013-09-25 04:01:00,
2013-09-25 00:03:00,78.4,73.2,29.92,NNW,334,1.0,2.0,84,0.00,,---,0.00,VWS V14.01,2013-09-25 04:03:00,
2013-09-25 00:04:00,78.4,72.8,29.93,NNW,331,0.0,2.0,83,0.00,,---,0.00,VWS V14.01,2013-09-25 04:04:00,
2013-09-25 00:09:00,78.5,72.6,29.93,WNW,283,0.0,2.0,82,0.00,,---,0.00,VWS V14.01,2013-09-25 04:09:00,
2013-09-25 00:14:00,78.4,73.2,29.92,WNW,283,0.0,2.0,84,0.00,,---,0.00,VWS V14.01,2013-09-25 04:14:00,
2013-09-25 00:15:00,78.2,73.0,29.92,West,272,0.0,0.0,84,0.00,,---,0.21,VWS V15.00,2013-09-25 04:15:00,
2013-09-25 00:19:00,78.3,72.4,29.92,WNW,285,0.0,0.0,82,0.00,,---,0.00,VWS V14.01,2013-09-25 04:19:00,
2013-09-25 00:20:00,78.3,72.7,29.92,WNW,285,0.0,0.0,83,0.00,,---,0.00,VWS V14.01,2013-09-25 04:20:00,
2013-09-25 00:25:00,78.2,72.3,29.92,West,273,0.0,1.0,82,0.00,,---,0.00,VWS V14.01,2013-09-25 04:25:00,
2013-09-25 00:30:00,78.1,72.2,29.91,West,274,0.0,1.0,82,0.00,,---,0.00,VWS V14.01,2013-09-25 04:30:00,
2013-09-25 00:36:00,78.0,72.1,29.91,West,267,0.0,1.0,82,0.00,,---,0.00,VWS V14.01,2013-09-25 04:36:00,
2013-09-25 00:41:00,77.9,71.6,29.90,West,267,0.0,1.0,81,0.00,,---,0.00,VWS V14.01,2013-09-25 04:41:00,
2013-09-25 00:45:00,78.3,73.1,29.92,WNW,291,0.0,1.0,84,0.00,,---,0.21,VWS V15.00,2013-09-25 04:45:00,
2013-09-25 00:46:00,77.8,71.9,29.90,West,267,0.0,1.0,82,0.00,,---,0.00,VWS V14.01,2013-09-25 04:46:00,
2013-09-25 00:51:00,77.7,71.8,29.90,West,267,0.0,0.0,82,0.00,,---,0.00,VWS V14.01,2013-09-25 04:51:00,
2013-09-25 00:56:00,77.6,72.4,29.90,West,268,0.0,1.0,84,0.00,,---,0.00,VWS V14.01,2013-09-25 04:56:00,
2013-09-25 01:00:00,78.4,72.8,29.92,NW,305,0.0,4.0,83,0.00,,---,0.21,VWS V15.00,2013-09-25 05:00:00,
2013-09-25 01:01:00,77.4,71.8,29.90,West,278,1.0,1.0,83,0.00,,---,0.00,VWS V14.01,2013-09-25 05:01:00,
2013-09-25 01:06:00,77.5,71.9,29.90,West,264,0.0,2.0,83,0.00,,---,0.00,VWS V14.01,2013-09-25 05:06:00,
2013-09-25 01:11:00,77.5,71.9,29.89,West,264,0.0,2.0,83,0.00,,---,0.00,VWS V14.01,2013-09-25 05:11:00,
2013-09-25 01:15:00,78.4,72.4,29.92,WNW,285,0.0,2.0,82,0.00,,---,0.00,VWS V15.00,2013-09-25 05:15:00,
2013-09-25 01:16:00,77.4,72.2,29.89,West,264,0.0,2.0,84,0.00,,---,0.00,VWS V14.01,2013-09-25 05:16:00,
2013-09-25 01:21:00,77.2,72.0,29.89,West,264,0.0,0.0,84,0.00,,---,0.00,VWS V14.01,2013-09-25 05:21:00,
2013-09-25 01:26:00,77.1,72.2,29.88,West,264,0.0,0.0,85,0.00,,---,0.00,VWS V14.01,2013-09-25 05:26:00,
2013-09-25 01:30:00,78.1,72.2,29.91,West,274,0.0,1.0,82,0.00,,---,0.00,VWS V15.00,2013-09-25 05:30:00,
2013-09-25 01:31:00,76.9,72.4,29.88,West,264,0.0,0.0,86,0.00,,---,0.00,VWS V14.01,2013-09-25 05:31:00,
2013-09-25 01:36:00,76.7,72.2,29.88,West,264,0.0,0.0,86,0.00,,---,0.00,VWS V14.01,2013-09-25 05:36:00,
2013-09-25 01:41:00,76.7,72.2,29.88,West,264,0.0,1.0,86,0.00,,---,0.00,VWS V14.01,2013-09-25 05:41:00,
2013-09-25 01:45:00,77.8,71.9,29.90,West,267,0.0,1.0,82,0.00,,---,0.00,VWS V15.00,2013-09-25 05:45:00,
2013-09-25 01:46:00,76.6,72.4,29.88,WNW,297,0.0,1.0,87,0.00,,---,0.00,VWS V14.01,2013-09-25 05:46:00,
2013-09-25 01:51:00,76.5,72.3,29.88,WNW,297,0.0,0.0,87,0.00,,---,0.00,VWS V14.01,2013-09-25 05:51:00,
2013-09-25 01:56:00,76.4,72.6,29.87,WNW,297,0.0,0.0,88,0.00,,---,0.00,VWS V14.01,2013-09-25 05:56:00,
2013-09-25 02:00:00,77.5,71.9,29.90,West,278,0.0,1.0,83,0.00,,---,0.00,VWS V15.00,2013-09-25 06:00:00,
2013-09-25 02:01:00,76.3,72.5,29.87,WNW,292,0.0,1.0,88,0.00,,---,0.00,VWS V14.01,2013-09-25 06:01:00,
2013-09-25 02:06:00,76.2,72.4,29.87,WNW,293,0.0,0.0,88,0.00,,---,0.00,VWS V14.01,2013-09-25 06:06:00,
2013-09-25 02:11:00,76.2,72.4,29.86,WNW,293,0.0,0.0,88,0.00,,---,0.00,VWS V14.01,2013-09-25 06:11:00,
2013-09-25 02:15:00,77.4,72.2,29.89,West,264,0.0,2.0,84,0.00,,---,0.00,VWS V15.00,2013-09-25 06:15:00,
2013-09-25 02:16:00,76.2,72.4,29.86,WNW,293,0.0,0.0,88,0.00,,---,0.00,VWS V14.01,2013-09-25 06:16:00,
2013-09-25 02:22:00,76.1,72.6,29.86,WNW,293,0.0,1.0,89,0.00,,---,0.00,VWS V14.01,2013-09-25 06:22:00,
2013-09-25 02:27:00,76.1,72.6,29.86,WNW,292,0.0,1.0,89,0.00,,---,0.00,VWS V14.01,2013-09-25 06:27:00,
2013-09-25 02:30:00,76.9,72.4,29.88,West,264,0.0,0.0,86,0.00,,---,0.00,VWS V15.00,2013-09-25 06:30:00,
2013-09-25 02:32:00,76.0,72.2,29.86,WNW,293,0.0,0.0,88,0.00,,---,0.00,VWS V14.01,2013-09-25 06:32:00,
2013-09-25 02:37:00,76.0,72.5,29.85,WNW,293,0.0,0.0,89,0.00,,---,0.00,VWS V14.01,2013-09-25 06:37:00,
2013-09-25 02:42:00,75.9,72.4,29.85,SSW,202,0.0,0.0,89,0.00,,---,0.00,VWS V14.01,2013-09-25 06:42:00,
2013-09-25 02:45:00,76.6,72.4,29.88,WNW,297,0.0,1.0,87,0.00,,---,0.00,VWS V15.00,2013-09-25 06:45:00,
2013-09-25 02:47:00,75.8,72.3,29.85,SSW,201,0.0,0.0,89,0.00,,---,0.00,VWS V14.01,2013-09-25 06:47:00,
2013-09-25 02:52:00,75.8,72.3,29.85,SSW,202,0.0,0.0,89,0.00,,---,0.00,VWS V14.01,2013-09-25 06:52:00,
2013-09-25 02:57:00,75.7,72.2,29.85,SSW,202,0.0,0.0,89,0.00,,---,0.00,VWS V14.01,2013-09-25 06:57:00,
2013-09-25 03:00:00,76.3,72.5,29.87,WNW,292,0.0,1.0,88,0.00,,---,0.00,VWS V15.00,2013-09-25 07:00:00,
2013-09-25 03:02:00,75.6,71.8,29.85,SSW,202,0.0,0.0,88,0.00,,---,0.00,VWS V14.01,2013-09-25 07:02:00,
2013-09-25 03:07:00,75.6,72.1,29.85,SSW,202,0.0,0.0,89,0.00,,---,0.00,VWS V14.01,2013-09-25 07:07:00,
2013-09-25 03:12:00,75.5,72.4,29.85,SSW,202,0.0,0.0,90,0.00,,---,0.00,VWS V14.01,2013-09-25 07:12:00,
2013-09-25 03:15:00,76.2,72.4,29.86,WNW,293,0.0,0.0,88,0.00,,---,0.00,VWS V15.00,2013-09-25 07:15:00,
2013-09-25 03:18:00,75.4,72.3,29.85,SSW,202,0.0,0.0,90,0.00,,---,0.00,VWS V14.01,2013-09-25 07:18:00,
2013-09-25 03:23:00,75.3,72.2,29.85,SSW,202,0.0,0.0,90,0.00,,---,0.00,VWS V14.01,2013-09-25 07:23:00,
2013-09-25 03:28:00,75.2,72.4,29.85,SSW,202,0.0,0.0,91,0.00,,---,0.00,VWS V14.01,2013-09-25 07:28:00,
2013-09-25 03:30:00,76.0,72.2,29.86,WNW,292,0.0,1.0,88,0.00,,---,0.00,VWS V15.00,2013-09-25 07:30:00,
2013-09-25 03:33:00,75.2,72.4,29.85,SSW,202,0.0,0.0,91,0.00,,---,0.00,VWS V14.01,2013-09-25 07:33:00,
2013-09-25 03:38:00,75.3,72.5,29.85,SSW,202,0.0,0.0,91,0.00,,---,0.00,VWS V14.01,2013-09-25 07:38:00,
2013-09-25 03:43:00,75.1,72.3,29.85,SSW,202,0.0,0.0,91,0.00,,---,0.00,VWS V14.01,2013-09-25 07:43:00,
2013-09-25 03:45:00,75.9,72.4,29.85,SSW,202,0.0,0.0,89,0.00,,---,0.00,VWS V15.00,2013-09-25 07:45:00,
2013-09-25 03:48:00,75.0,72.5,29.85,SSW,202,0.0,0.0,92,0.00,,---,0.00,VWS V14.01,2013-09-25 07:48:00,
2013-09-25 03:53:00,75.0,72.5,29.85,SSW,202,0.0,0.0,92,0.00,,---,0.00,VWS V14.01,2013-09-25 07:53:00,
2013-09-25 03:58:00,75.0,72.5,29.85,SSW,202,0.0,0.0,92,0.00,,---,0.00,VWS V14.01,2013-09-25 07:58:00,
2013-09-25 04:00:00,75.6,71.8,29.85,SSW,202,0.0,0.0,88,0.00,,---,0.00,VWS V15.00,2013-09-25 08:00:00,
2013-09-25 04:03:00,74.8,72.3,29.85,SSW,202,0.0,0.0,92,0.00,,---,0.00,VWS V14.01,2013-09-25 08:03:00,
2013-09-25 04:08:00,74.8,72.3,29.84,SSW,202,0.0,0.0,92,0.00,,---,0.00,VWS V14.01,2013-09-25 08:08:00,
2013-09-25 04:13:00,74.8,72.3,29.84,SSW,202,0.0,0.0,92,0.00,,---,0.00,VWS V14.01,2013-09-25 08:13:00,
2013-09-25 04:15:00,75.4,72.3,29.85,SSW,202,0.0,0.0,90,0.00,,---,0.00,VWS V15.00,2013-09-25 08:15:00,
2013-09-25 04:18:00,74.8,72.3,29.84,SSW,201,0.0,0.0,92,0.00,,---,0.00,VWS V14.01,2013-09-25 08:18:00,
2013-09-25 04:23:00,74.7,72.2,29.85,SSW,201,0.0,0.0,92,0.00,,---,0.00,VWS V14.01,2013-09-25 08:23:00,
2013-09-25 04:28:00,74.7,72.6,29.84,SSW,201,0.0,0.0,93,0.00,,---,0.00,VWS V14.01,2013-09-25 08:28:00,
2013-09-25 04:30:00,75.2,72.4,29.85,SSW,202,0.0,0.0,91,0.00,,---,0.00,VWS V15.00,2013-09-25 08:30:00,
2013-09-25 04:33:00,74.7,72.6,29.84,SSW,201,0.0,0.0,93,0.00,,---,0.00,VWS V14.01,2013-09-25 08:33:00,
2013-09-25 04:38:00,74.6,72.1,29.84,SSW,201,0.0,0.0,92,0.00,,---,0.00,VWS V14.01,2013-09-25 08:38:00,
2013-09-25 04:43:00,74.5,72.3,29.84,SSW,201,0.0,0.0,93,0.00,,---,0.00,VWS V14.01,2013-09-25 08:43:00,
2013-09-25 04:45:00,75.1,72.3,29.85,SSW,202,0.0,0.0,91,0.00,,---,0.00,VWS V15.00,2013-09-25 08:45:00,
2013-09-25 04:48:00,74.6,72.8,29.84,SSW,202,0.0,0.0,94,0.00,,---,0.00,VWS V14.01,2013-09-25 08:48:00,
2013-09-25 04:53:00,74.4,72.6,29.84,SSW,201,0.0,0.0,94,0.00,,---,0.00,VWS V14.01,2013-09-25 08:53:00,
2013-09-25 04:58:00,74.3,72.5,29.84,SSW,201,0.0,0.0,94,0.00,,---,0.00,VWS V14.01,2013-09-25 08:58:00,
2013-09-25 05:00:00,74.9,72.4,29.85,SSW,202,0.0,0.0,92,0.00,,---,0.00,VWS V15.00,2013-09-25 09:00:00,
2013-09-25 05:03:00,74.3,72.5,29.84,SSW,201,0.0,0.0,94,0.00,,---,0.00,VWS V14.01,2013-09-25 09:03:00,
2013-09-25 05:08:00,74.2,72.4,29.85,SSW,201,0.0,0.0,94,0.00,,---,0.00,VWS V14.01,2013-09-25 09:08:00,
2013-09-25 05:13:00,74.1,72.3,29.84,SSW,201,0.0,0.0,94,0.00,,---,0.00,VWS V14.01,2013-09-25 09:13:00,
2013-09-25 05:15:00,74.8,72.3,29.84,SSW,201,0.0,0.0,92,0.00,,---,0.00,VWS V15.00,2013-09-25 09:15:00,
2013-09-25 05:18:00,74.1,72.3,29.84,SSW,201,0.0,0.0,94,0.00,,---,0.00,VWS V14.01,2013-09-25 09:18:00,
2013-09-25 05:23:00,74.0,72.5,29.85,SSW,201,0.0,0.0,95,0.00,,---,0.00,VWS V14.01,2013-09-25 09:23:00,
2013-09-25 05:28:00,74.2,72.4,29.85,SSW,201,0.0,0.0,94,0.00,,---,0.00,VWS V14.01,2013-09-25 09:28:00,
2013-09-25 05:30:00,74.7,72.5,29.84,SSW,201,0.0,0.0,93,0.00,,---,0.00,VWS V15.00,2013-09-25 09:30:00,
2013-09-25 05:33:00,74.4,72.6,29.85,SSW,201,0.0,0.0,94,0.00,,---,0.00,VWS V14.01,2013-09-25 09:33:00,
2013-09-25 05:38:00,74.6,72.8,29.85,SSW,201,0.0,0.0,94,0.00,,---,0.00,VWS V14.01,2013-09-25 09:38:00,
2013-09-25 05:43:00,74.7,72.9,29.85,SSW,201,0.0,0.0,94,0.00,,---,0.00,VWS V14.01,2013-09-25 09:43:00,
2013-09-25 05:45:00,74.5,72.7,29.84,SSW,202,0.0,0.0,94,0.00,,---,0.00,VWS V15.00,2013-09-25 09:45:00,
2013-09-25 05:48:00,74.7,72.6,29.85,SSW,201,0.0,0.0,93,0.00,,---,0.00,VWS V14.01,2013-09-25 09:48:00,
2013-09-25 05:53:00,74.8,73.0,29.85,SSW,201,0.0,0.0,94,0.00,,---,0.00,VWS V14.01,2013-09-25 09:53:00,
2013-09-25 05:58:00,74.8,72.6,29.86,SSW,201,0.0,0.0,93,0.00,,---,0.00,VWS V14.01,2013-09-25 09:58:00,
2013-09-25 06:00:00,74.3,72.5,29.84,SSW,201,0.0,0.0,94,0.00,,---,0.00,VWS V15.00,2013-09-25 10:00:00,
2013-09-25 06:03:00,74.8,73.0,29.86,SSW,201,0.0,0.0,94,0.00,,---,0.00,VWS V14.01,2013-09-25 10:03:00,
2013-09-25 06:08:00,74.9,73.1,29.86,SSW,195,0.0,0.0,94,0.00,,---,0.00,VWS V14.01,2013-09-25 10:08:00,
2013-09-25 06:13:00,74.9,73.1,29.86,SSW,195,0.0,0.0,94,0.00,,---,0.00,VWS V14.01,2013-09-25 10:13:00,
2013-09-25 06:15:00,74.1,72.3,29.84,SSW,201,0.0,0.0,94,0.00,,---,0.00,VWS V15.00,2013-09-25 10:15:00,
2013-09-25 06:18:00,75.0,73.2,29.86,SSW,195,0.0,0.0,94,0.00,,---,0.00,VWS V14.01,2013-09-25 10:18:00,
2013-09-25 06:23:00,75.1,73.3,29.86,SSW,195,0.0,0.0,94,0.00,,---,0.00,VWS V14.01,2013-09-25 10:23:00,
2013-09-25 06:28:00,75.1,73.6,29.86,SSW,195,0.0,0.0,95,0.00,,---,0.00,VWS V14.01,2013-09-25 10:28:00,
2013-09-25 06:30:00,74.4,72.6,29.85,SSW,201,0.0,0.0,94,0.00,,---,0.00,VWS V15.00,2013-09-25 10:30:00,
2013-09-25 06:34:00,75.1,73.6,29.87,SSW,195,0.0,0.0,95,0.00,,---,0.00,VWS V14.01,2013-09-25 10:34:00,
2013-09-25 06:39:00,75.0,73.5,29.87,SSW,195,0.0,0.0,95,0.00,,---,0.00,VWS V14.01,2013-09-25 10:39:00,
2013-09-25 06:44:00,74.9,73.4,29.87,SSW,195,0.0,0.0,95,0.00,,---,0.00,VWS V14.01,2013-09-25 10:44:00,
2013-09-25 06:45:00,74.7,72.9,29.85,SSW,201,0.0,0.0,94,0.00,,---,0.00,VWS V15.00,2013-09-25 10:45:00,
2013-09-25 06:49:00,74.8,73.3,29.87,SSW,195,0.0,0.0,95,0.00,,---,0.00,VWS V14.01,2013-09-25 10:49:00,
2013-09-25 06:54:00,74.9,73.4,29.87,SSW,195,0.0,0.0,95,0.00,,---,0.00,VWS V14.01,2013-09-25 10:54:00,
2013-09-25 06:59:00,74.8,73.3,29.87,SSW,195,0.0,0.0,95,0.00,,---,0.00,VWS V14.01,2013-09-25 10:59:00,
2013-09-25 07:00:00,74.8,72.6,29.86,SSW,201,0.0,0.0,93,0.00,,---,0.00,VWS V15.00,2013-09-25 11:00:00,
2013-09-25 07:04:00,74.7,73.5,29.87,SSW,195,0.0,0.0,96,0.00,,---,0.00,VWS V14.01,2013-09-25 11:04:00,
2013-09-25 07:09:00,74.8,73.6,29.87,SSW,195,0.0,0.0,96,0.00,,---,0.00,VWS V14.01,2013-09-25 11:09:00,
2013-09-25 07:14:00,74.8,73.6,29.87,SSW,195,0.0,0.0,96,0.00,,---,0.00,VWS V14.01,2013-09-25 11:14:00,
2013-09-25 07:15:00,75.0,73.2,29.86,SSW,195,0.0,0.0,94,0.00,,---,0.00,VWS V15.00,2013-09-25 11:15:00,
2013-09-25 07:19:00,74.8,73.6,29.87,SSW,195,0.0,0.0,96,0.00,,---,0.00,VWS V14.01,2013-09-25 11:19:00,
2013-09-25 07:24:00,74.8,73.6,29.87,SSW,195,0.0,0.0,96,0.00,,---,0.00,VWS V14.01,2013-09-25 11:24:00,
2013-09-25 07:29:00,74.8,73.6,29.87,SSW,195,0.0,0.0,96,0.00,,---,0.00,VWS V14.01,2013-09-25 11:29:00,
2013-09-25 07:30:00,75.1,73.6,29.86,SSW,195,0.0,0.0,95,0.00,,---,0.00,VWS V15.00,2013-09-25 11:30:00,
2013-09-25 07:34:00,75.0,73.8,29.88,SSW,195,0.0,0.0,96,0.00,,---,0.00,VWS V14.01,2013-09-25 11:34:00,
2013-09-25 07:39:00,75.5,74.3,29.87,SSW,195,0.0,0.0,96,0.00,,---,0.00,VWS V14.01,2013-09-25 11:39:00,
2013-09-25 07:44:00,75.9,74.7,29.87,SSW,195,0.0,0.0,96,0.00,,---,0.00,VWS V14.01,2013-09-25 11:44:00,
2013-09-25 07:45:00,74.8,73.0,29.87,SSW,195,0.0,0.0,94,0.00,,---,0.00,VWS V15.00,2013-09-25 11:45:00,
2013-09-25 07:49:00,76.4,75.2,29.87,SSW,195,0.0,0.0,96,0.00,,---,0.00,VWS V14.01,2013-09-25 11:49:00,
2013-09-25 07:54:00,77.0,75.8,29.88,SSW,195,0.0,0.0,96,0.00,,---,0.00,VWS V14.01,2013-09-25 11:54:00,
2013-09-25 07:59:00,77.8,76.6,29.88,SSW,195,0.0,0.0,96,0.00,,---,0.00,VWS V14.01,2013-09-25 11:59:00,
2013-09-25 08:00:00,74.7,73.2,29.87,SSW,195,0.0,0.0,95,0.00,,---,0.00,VWS V15.00,2013-09-25 12:00:00,
2013-09-25 08:04:00,78.5,76.6,29.88,SSW,195,0.0,0.0,94,0.00,,---,0.00,VWS V14.01,2013-09-25 12:04:00,
2013-09-25 08:09:00,79.2,77.0,29.88,SW,218,0.0,0.0,93,0.00,,---,0.00,VWS V14.01,2013-09-25 12:09:00,
2013-09-25 08:14:00,80.1,77.6,29.88,WNW,293,0.0,1.0,92,0.00,,---,0.00,VWS V14.01,2013-09-25 12:14:00,
2013-09-25 08:15:00,74.8,73.6,29.87,SSW,195,0.0,0.0,96,0.00,,---,0.00,VWS V15.00,2013-09-25 12:15:00,
2013-09-25 08:19:00,80.8,77.6,29.88,West,270,0.0,2.0,90,0.00,,---,0.00,VWS V14.01,2013-09-25 12:19:00,
2013-09-25 08:24:00,81.5,78.3,29.88,West,271,0.0,2.0,90,0.00,,---,0.00,VWS V14.01,2013-09-25 12:24:00,
2013-09-25 08:27:00,81.9,78.3,29.88,West,275,1.0,2.0,89,0.00,,---,0.00,VWS V14.01,2013-09-25 12:27:00,
2013-09-25 08:30:00,74.9,73.7,29.88,SSW,195,0.0,0.0,96,0.00,,---,0.00,VWS V15.00,2013-09-25 12:30:00,
2013-09-25 08:32:00,82.0,78.4,29.88,West,275,0.0,3.0,89,0.00,,---,0.00,VWS V14.01,2013-09-25 12:32:00,
2013-09-25 08:37:00,82.2,78.6,29.88,West,280,0.0,4.0,89,0.00,,---,0.00,VWS V14.01,2013-09-25 12:37:00,
2013-09-25 08:42:00,82.3,78.7,29.88,West,274,0.0,4.0,89,0.00,,---,0.00,VWS V14.01,2013-09-25 12:42:00,
2013-09-25 08:45:00,76.1,74.9,29.87,SSW,195,0.0,0.0,96,0.00,,---,0.00,VWS V15.00,2013-09-25 12:45:00,
2013-09-25 08:47:00,82.4,78.8,29.88,WSW,246,3.0,3.0,89,0.00,,---,0.00,VWS V14.01,2013-09-25 12:47:00,
2013-09-25 08:53:00,82.7,79.5,29.88,NW,323,0.0,4.0,90,0.00,,---,0.00,VWS V14.01,2013-09-25 12:53:00,
2013-09-25 08:58:00,83.0,79.4,29.88,West,280,1.0,4.0,89,0.00,,---,0.00,VWS V14.01,2013-09-25 12:58:00,
2013-09-25 09:00:00,78.1,76.6,29.88,SSW,195,0.0,0.0,95,0.00,,---,0.00,VWS V15.00,2013-09-25 13:00:00,
2013-09-25 09:03:00,83.3,79.7,29.88,WNW,290,0.0,2.0,89,0.00,,---,0.00,VWS V14.01,2013-09-25 13:03:00,
2013-09-25 09:08:00,83.4,79.5,29.88,West,269,0.0,6.0,88,0.00,,---,0.00,VWS V14.01,2013-09-25 13:08:00,
2013-09-25 09:13:00,83.7,79.8,29.88,NW,323,0.0,6.0,88,0.00,,---,0.00,VWS V14.01,2013-09-25 13:13:00,
2013-09-25 09:15:00,80.5,78.0,29.88,WNW,293,0.0,1.0,92,0.00,,---,0.00,VWS V15.00,2013-09-25 13:15:00,
2013-09-25 09:18:00,83.8,79.5,29.89,WNW,288,2.0,7.0,87,0.00,,---,0.00,VWS V14.01,2013-09-25 13:18:00,
2013-09-25 09:23:00,83.7,79.1,29.89,West,273,0.0,8.0,86,0.00,,---,0.00,VWS V14.01,2013-09-25 13:23:00,
2013-09-25 09:28:00,83.6,79.3,29.89,NW,322,1.0,8.0,87,0.00,,---,0.00,VWS V14.01,2013-09-25 13:28:00,
2013-09-25 09:30:00,81.9,78.3,29.88,West,265,1.0,3.0,89,0.00,,---,0.00,VWS V15.00,2013-09-25 13:30:00,
2013-09-25 09:33:00,83.7,79.4,29.89,WNW,284,3.0,4.0,87,0.00,,---,0.00,VWS V14.01,2013-09-25 13:33:00,
2013-09-25 09:38:00,84.2,79.9,29.89,NW,304,0.0,6.0,87,0.00,,---,0.00,VWS V14.01,2013-09-25 13:38:00,
2013-09-25 09:43:00,84.8,80.2,29.89,West,281,0.0,7.0,86,0.00,,---,0.00,VWS V14.01,2013-09-25 13:43:00,
2013-09-25 09:45:00,82.4,78.8,29.88,West,276,0.0,4.0,89,0.00,,---,0.00,VWS V15.00,2013-09-25 13:45:00,
2013-09-25 09:48:00,85.1,79.7,29.89,WSW,251,3.0,4.0,84,0.00,,---,0.00,VWS V14.01,2013-09-25 13:48:00,
2013-09-25 09:53:00,85.1,79.4,29.90,NW,311,5.0,10.0,83,0.00,,---,0.00,VWS V14.01,2013-09-25 13:53:00,
2013-09-25 09:58:00,85.1,79.4,29.90,WSW,257,0.0,10.0,83,0.00,,---,0.00,VWS V14.01,2013-09-25 13:58:00,
2013-09-25 10:00:00,83.2,79.3,29.88,West,278,0.0,5.0,88,0.00,,---,0.00,VWS V15.00,2013-09-25 14:00:00,
2013-09-25 10:03:00,85.5,79.8,29.90,West,268,0.0,5.0,83,0.00,,---,0.00,VWS V14.01,2013-09-25 14:03:00,
2013-09-25 10:08:00,86.2,80.1,29.90,WNW,288,0.0,5.0,82,0.00,,---,0.00,VWS V14.01,2013-09-25 14:08:00,
2013-09-25 10:13:00,86.6,79.7,29.90,WNW,299,2.0,9.0,80,0.00,,---,0.00,VWS V14.01,2013-09-25 14:13:00,
2013-09-25 10:15:00,83.9,80.0,29.89,West,275,1.0,6.0,88,0.00,,---,0.00,VWS V15.00,2013-09-25 14:15:00,
2013-09-25 10:18:00,86.7,79.0,29.90,North,1,2.0,8.0,78,0.00,,---,0.00,VWS V14.01,2013-09-25 14:18:00,
2013-09-25 10:23:00,87.0,79.3,29.90,WSW,249,1.0,11.0,78,0.00,,---,0.00,VWS V14.01,2013-09-25 14:23:00,
2013-09-25 10:28:00,87.1,79.4,29.90,WSW,252,6.0,11.0,78,0.00,,---,0.00,VWS V14.01,2013-09-25 14:28:00,
2013-09-25 10:30:00,83.7,79.4,29.89,NW,304,1.0,8.0,87,0.00,,---,0.00,VWS V15.00,2013-09-25 14:30:00,
2013-09-25 10:33:00,87.0,79.3,29.90,SSW,203,3.0,13.0,78,0.00,,---,0.00,VWS V14.01,2013-09-25 14:33:00,
2013-09-25 10:38:00,87.1,79.0,29.90,NW,321,2.0,13.0,77,0.00,,---,0.00,VWS V14.01,2013-09-25 14:38:00,
2013-09-25 10:43:00,86.8,79.5,29.90,West,263,3.0,13.0,79,0.00,,---,0.00,VWS V14.01,2013-09-25 14:43:00,
2013-09-25 10:45:00,85.0,80.0,29.89,West,266,0.0,8.0,85,0.00,,---,0.00,VWS V15.00,2013-09-25 14:45:00,
2013-09-25 10:48:00,87.4,79.7,29.90,WNW,287,1.0,4.0,78,0.00,,---,0.00,VWS V14.01,2013-09-25 14:48:00,
2013-09-25 10:53:00,87.7,79.6,29.90,West,275,4.0,9.0,77,0.00,,---,0.00,VWS V14.01,2013-09-25 14:53:00,
2013-09-25 10:58:00,87.2,78.7,29.90,NW,307,0.0,9.0,76,0.00,,---,0.00,VWS V14.01,2013-09-25 14:58:00,
2013-09-25 11:00:00,85.4,79.7,29.90,West,278,5.0,10.0,83,0.00,,---,0.00,VWS V15.00,2013-09-25 15:00:00,
2013-09-25 11:04:00,87.8,79.3,29.90,NNW,330,6.0,8.0,76,0.00,,---,0.00,VWS V14.01,2013-09-25 15:04:00,
2013-09-25 11:09:00,88.4,79.9,29.90,West,266,5.0,8.0,76,0.00,,---,0.00,VWS V14.01,2013-09-25 15:09:00,
2013-09-25 11:14:00,87.1,79.0,29.90,WNW,293,3.0,8.0,77,0.00,,---,0.00,VWS V14.01,2013-09-25 15:14:00,
2013-09-25 11:15:00,86.6,78.9,29.90,West,271,5.0,14.0,78,0.00,,---,0.00,VWS V15.00,2013-09-25 15:15:00,
2013-09-25 11:19:00,85.5,75.9,29.90,WNW,293,4.0,6.0,73,0.00,,---,0.00,VWS V14.01,2013-09-25 15:19:00,
2013-09-25 11:24:00,84.9,77.3,29.90,NNW,328,6.0,9.0,78,0.02,,---,0.02,VWS V14.01,2013-09-25 15:24:00,
2013-09-25 11:29:00,82.2,76.9,29.90,NW,312,1.0,9.0,84,0.16,,---,0.16,VWS V14.01,2013-09-25 15:29:00,
2013-09-25 11:30:00,86.9,79.6,29.90,WNW,287,5.0,11.0,79,0.00,,---,0.00,VWS V15.00,2013-09-25 15:30:00,
2013-09-25 11:34:00,81.2,77.7,29.91,NNW,335,2.0,4.0,89,0.16,,---,0.16,VWS V14.01,2013-09-25 15:34:00,
2013-09-25 11:39:00,81.5,78.3,29.90,NW,318,4.0,6.0,90,0.17,,---,0.17,VWS V14.01,2013-09-25 15:39:00,
2013-09-25 11:44:00,80.8,77.3,29.90,NW,315,2.0,6.0,89,0.20,,---,0.20,VWS V14.01,2013-09-25 15:44:00,
2013-09-25 11:45:00,87.0,79.7,29.90,West,269,1.0,13.0,79,0.00,,---,0.00,VWS V15.00,2013-09-25 15:45:00,
2013-09-25 11:49:00,80.5,78.0,29.89,NW,309,0.0,3.0,92,0.24,,---,0.24,VWS V14.01,2013-09-25 15:49:00,
2013-09-25 11:54:00,80.5,78.3,29.90,West,270,0.0,4.0,93,0.24,,---,0.24,VWS V14.01,2013-09-25 15:54:00,
2013-09-25 11:59:00,80.6,78.1,29.90,WNW,294,0.0,4.0,92,0.24,,---,0.24,VWS V14.01,2013-09-25 15:59:00,
2013-09-25 12:00:00,87.4,79.7,29.90,NW,323,0.0,9.0,78,0.00,,---,0.00,VWS V15.00,2013-09-25 16:00:00,
2013-09-25 12:04:00,80.3,77.4,29.90,NW,319,1.0,2.0,91,0.24,,---,0.24,VWS V14.01,2013-09-25 16:04:00,
2013-09-25 12:09:00,80.1,76.9,29.89,WNW,297,0.0,2.0,90,0.24,,---,0.24,VWS V14.01,2013-09-25 16:09:00,
2013-09-25 12:14:00,80.1,77.2,29.90,NW,305,0.0,2.0,91,0.24,,---,0.24,VWS V14.01,2013-09-25 16:14:00,
2013-09-25 12:15:00,86.0,76.3,29.90,NW,311,2.0,10.0,73,0.00,,---,0.00,VWS V15.00,2013-09-25 16:15:00,
2013-09-25 12:19:00,80.1,76.9,29.89,WNW,300,0.0,1.0,90,0.24,,---,0.24,VWS V14.01,2013-09-25 16:19:00,
2013-09-25 12:24:00,80.1,77.2,29.89,WNW,291,0.0,2.0,91,0.24,,---,0.24,VWS V14.01,2013-09-25 16:24:00,
2013-09-25 12:29:00,80.3,77.4,29.90,West,272,3.0,5.0,91,0.24,,---,0.24,VWS V14.01,2013-09-25 16:29:00,
2013-09-25 12:30:00,81.5,76.6,29.90,NW,314,4.0,9.0,85,0.16,,---,0.16,VWS V15.00,2013-09-25 16:30:00,
2013-09-25 12:34:00,80.2,75.6,29.90,WNW,290,2.0,8.0,86,0.08,,---,0.24,VWS V14.01,2013-09-25 16:34:00,
2013-09-25 12:39:00,80.0,75.4,29.90,WNW,284,2.0,11.0,86,0.08,,---,0.24,VWS V14.01,2013-09-25 16:39:00,
2013-09-25 12:44:00,79.8,75.2,29.90,WNW,303,1.0,11.0,86,0.08,,---,0.24,VWS V14.01,2013-09-25 16:44:00,
2013-09-25 12:45:00,80.6,77.7,29.90,NNW,345,2.0,6.0,91,0.23,,---,0.23,VWS V15.00,2013-09-25 16:45:00,
2013-09-25 12:49:00,79.8,75.6,29.90,West,274,1.0,4.0,87,0.01,,---,0.24,VWS V14.01,2013-09-25 16:49:00,
2013-09-25 12:54:00,79.8,75.9,29.89,NNW,328,3.0,4.0,88,0.01,,---,0.24,VWS V14.01,2013-09-25 16:54:00,
2013-09-25 12:59:00,79.9,76.0,29.89,WSW,256,3.0,5.0,88,0.01,,---,0.24,VWS V14.01,2013-09-25 16:59:00,
2013-09-25 13:00:00,80.5,78.0,29.90,NW,316,0.0,4.0,92,0.24,,---,0.24,VWS V15.00,2013-09-25 17:00:00,
2013-09-25 13:04:00,80.1,76.2,29.89,WSW,255,0.0,6.0,88,0.00,,---,0.24,VWS V14.01,2013-09-25 17:04:00,
2013-09-25 13:09:00,80.3,76.4,29.88,West,274,1.0,7.0,88,0.00,,---,0.24,VWS V14.01,2013-09-25 17:09:00,
2013-09-25 13:14:00,80.6,76.7,29.88,ESE,102,2.0,7.0,88,0.00,,---,0.24,VWS V14.01,2013-09-25 17:14:00,
2013-09-25 13:15:00,80.2,77.0,29.89,NW,305,0.0,2.0,90,0.24,,---,0.24,VWS V15.00,2013-09-25 17:15:00,
2013-09-25 13:19:00,80.8,76.6,29.88,WNW,300,2.0,6.0,87,0.00,,---,0.24,VWS V14.01,2013-09-25 17:19:00,
2013-09-25 13:24:00,81.0,76.8,29.87,WNW,300,3.0,6.0,87,0.00,,---,0.24,VWS V14.01,2013-09-25 17:24:00,
2013-09-25 13:29:00,81.2,77.3,29.87,West,264,2.0,6.0,88,0.00,,---,0.24,VWS V14.01,2013-09-25 17:29:00,
2013-09-25 13:30:00,80.3,77.4,29.90,NW,322,5.0,5.0,91,0.24,,---,0.24,VWS V15.00,2013-09-25 17:30:00,
2013-09-25 13:34:00,81.4,77.2,29.87,NW,314,1.0,4.0,87,0.00,,---,0.24,VWS V14.01,2013-09-25 17:34:00,
2013-09-25 13:39:00,81.7,77.5,29.87,NNW,334,3.0,7.0,87,0.00,,---,0.24,VWS V14.01,2013-09-25 17:39:00,
2013-09-25 13:44:00,82.0,77.4,29.88,NW,321,3.0,10.0,86,0.00,,---,0.24,VWS V14.01,2013-09-25 17:44:00,
2013-09-25 13:45:00,79.8,75.2,29.90,WNW,300,3.0,11.0,86,0.08,,---,0.24,VWS V15.00,2013-09-25 17:45:00,
2013-09-25 13:49:00,81.5,77.3,29.87,North,353,4.0,8.0,87,0.00,,---,0.24,VWS V14.01,2013-09-25 17:49:00,
2013-09-25 13:54:00,80.5,76.6,29.88,NW,305,4.0,10.0,88,0.01,,---,0.25,VWS V14.01,2013-09-25 17:54:00,
2013-09-25 13:59:00,80.2,77.7,29.87,NW,323,3.0,10.0,92,0.01,,---,0.25,VWS V14.01,2013-09-25 17:59:00,
2013-09-25 14:00:00,80.0,76.1,29.89,NW,308,2.0,7.0,88,0.01,,---,0.24,VWS V15.00,2013-09-25 18:00:00,
2013-09-25 14:04:00,80.7,78.2,29.86,NNW,328,2.0,2.0,92,0.01,,---,0.25,VWS V14.01,2013-09-25 18:04:00,
2013-09-25 14:09:00,81.4,78.2,29.87,WSW,254,2.0,6.0,90,0.01,,---,0.25,VWS V14.01,2013-09-25 18:09:00,
2013-09-25 14:15:00,82.3,78.7,29.86,NW,309,3.0,6.0,89,0.01,,---,0.25,VWS V14.01,2013-09-25 18:15:00,
2013-09-25 14:20:00,82.9,78.3,29.86,NNE,12,2.0,8.0,86,0.01,,---,0.25,VWS V14.01,2013-09-25 18:20:00,
2013-09-25 14:25:00,83.3,78.3,29.86,NW,318,1.0,8.0,85,0.01,,---,0.25,VWS V14.01,2013-09-25 18:25:00,
2013-09-25 14:30:00,83.3,76.9,29.85,WNW,295,1.0,8.0,81,0.01,,---,0.25,VWS V14.01,2013-09-25 18:30:00,
2013-09-25 14:35:00,83.4,78.1,29.85,WNW,297,0.0,4.0,84,0.01,,---,0.25,VWS V14.01,2013-09-25 18:35:00,
2013-09-25 14:40:00,84.3,78.2,29.85,NW,307,1.0,4.0,82,0.01,,---,0.25,VWS V14.01,2013-09-25 18:40:00,
2013-09-25 14:45:00,85.2,77.9,29.85,NW,323,3.0,5.0,79,0.01,,---,0.25,VWS V14.01,2013-09-25 18:45:00,
2013-09-25 14:50:00,85.7,77.7,29.85,WNW,289,1.0,7.0,77,0.01,,---,0.25,VWS V14.01,2013-09-25 18:50:00,
2013-09-25 14:55:00,86.0,76.8,29.85,West,271,4.0,8.0,74,0.01,,---,0.25,VWS V14.01,2013-09-25 18:55:00,
2013-09-25 15:00:00,86.5,76.8,29.85,WSW,248,4.0,8.0,73,0.01,,---,0.25,VWS V14.01,2013-09-25 19:00:00,
2013-09-25 15:05:00,86.7,76.6,29.85,NW,323,3.0,7.0,72,0.00,,---,0.25,VWS V14.01,2013-09-25 19:05:00,
2013-09-25 15:11:00,86.9,76.8,29.86,NW,308,8.0,8.0,72,0.00,,---,0.25,VWS V14.01,2013-09-25 19:11:00,
2013-09-25 15:15:00,82.5,78.6,29.86,NNE,28,4.0,6.0,88,0.01,,---,0.25,VWS V15.00,2013-09-25 19:15:00,
2013-09-25 15:16:00,87.1,77.0,29.86,West,268,5.0,5.0,72,0.00,,---,0.25,VWS V14.01,2013-09-25 19:16:00,
2013-09-25 15:21:00,87.3,76.3,29.86,NW,319,3.0,8.0,70,0.00,,---,0.25,VWS V14.01,2013-09-25 19:21:00,
2013-09-25 15:26:00,87.2,76.2,29.85,West,274,2.0,8.0,70,0.00,,---,0.25,VWS V14.01,2013-09-25 19:26:00,
2013-09-25 15:30:00,83.3,77.2,29.85,NW,324,2.0,8.0,82,0.01,,---,0.25,VWS V15.00,2013-09-25 19:30:00,
2013-09-25 15:31:00,87.7,76.3,29.84,West,259,1.0,2.0,69,0.00,,---,0.25,VWS V14.01,2013-09-25 19:31:00,
2013-09-25 15:36:00,87.4,76.8,29.85,NW,309,0.0,5.0,71,0.00,,---,0.25,VWS V14.01,2013-09-25 19:36:00,
2013-09-25 15:41:00,86.9,75.1,29.85,West,268,1.0,8.0,68,0.00,,---,0.25,VWS V14.01,2013-09-25 19:41:00,
2013-09-25 15:45:00,85.4,77.8,29.85,NW,316,0.0,5.0,78,0.01,,---,0.25,VWS V15.00,2013-09-25 19:45:00,
2013-09-25 15:46:00,86.4,74.2,29.85,NNW,339,5.0,5.0,67,0.00,,---,0.25,VWS V14.01,2013-09-25 19:46:00,
2013-09-25 15:51:00,86.1,74.3,29.85,West,277,1.0,8.0,68,0.00,,---,0.25,VWS V14.01,2013-09-25 19:51:00,
2013-09-25 15:56:00,86.0,74.7,29.84,NW,326,2.0,8.0,69,0.00,,---,0.25,VWS V14.01,2013-09-25 19:56:00,
2013-09-25 16:00:00,86.5,76.8,29.85,WNW,290,4.0,8.0,73,0.01,,---,0.25,VWS V15.00,2013-09-25 20:00:00,
2013-09-25 16:01:00,85.9,75.0,29.84,WNW,285,1.0,1.0,70,0.00,,---,0.25,VWS V14.01,2013-09-25 20:01:00,
2013-09-25 16:06:00,85.7,74.8,29.83,WNW,283,0.0,7.0,70,0.00,,---,0.25,VWS V14.01,2013-09-25 20:06:00,
2013-09-25 16:11:00,85.5,75.0,29.83,West,264,1.0,7.0,71,0.00,,---,0.25,VWS V14.01,2013-09-25 20:11:00,
2013-09-25 16:15:00,87.1,77.0,29.86,West,262,4.0,8.0,72,0.00,,---,0.25,VWS V15.00,2013-09-25 20:15:00,
2013-09-25 16:16:00,85.1,74.6,29.83,West,264,0.0,2.0,71,0.00,,---,0.25,VWS V14.01,2013-09-25 20:16:00,
2013-09-25 16:21:00,84.8,75.2,29.82,WNW,293,0.0,2.0,73,0.00,,---,0.25,VWS V14.01,2013-09-25 20:21:00,
2013-09-25 16:27:00,84.4,75.2,29.82,NW,304,0.0,3.0,74,0.00,,---,0.25,VWS V14.01,2013-09-25 20:27:00,
2013-09-25 16:30:00,87.7,76.3,29.84,West,268,2.0,8.0,69,0.00,,---,0.25,VWS V15.00,2013-09-25 20:30:00,
2013-09-25 16:32:00,84.1,75.3,29.82,ESE,109,0.0,1.0,75,0.00,,---,0.25,VWS V14.01,2013-09-25 20:32:00,
2013-09-25 16:37:00,83.9,75.5,29.82,SW,215,0.0,2.0,76,0.00,,---,0.25,VWS V14.01,2013-09-25 20:37:00,
2013-09-25 16:42:00,83.7,75.3,29.82,WSW,255,0.0,5.0,76,0.00,,---,0.25,VWS V14.01,2013-09-25 20:42:00,
2013-09-25 16:45:00,86.5,74.2,29.85,NW,323,2.0,8.0,67,0.00,,---,0.25,VWS V15.00,2013-09-25 20:45:00,
2013-09-25 16:47:00,83.6,75.6,29.82,ENE,65,0.0,1.0,77,0.00,,---,0.25,VWS V14.01,2013-09-25 20:47:00,
2013-09-25 16:52:00,83.6,75.6,29.82,South,180,0.0,3.0,77,0.00,,---,0.25,VWS V14.01,2013-09-25 20:52:00,
2013-09-25 16:57:00,83.5,75.5,29.82,WNW,292,0.0,6.0,77,0.00,,---,0.25,VWS V14.01,2013-09-25 20:57:00,
2013-09-25 17:00:00,85.9,75.0,29.84,WNW,297,1.0,8.0,70,0.00,,---,0.25,VWS V15.00,2013-09-25 21:00:00,
2013-09-25 17:02:00,83.6,75.6,29.83,WSW,238,2.0,4.0,77,0.00,,---,0.25,VWS V14.01,2013-09-25 21:02:00,
2013-09-25 17:07:00,83.7,76.5,29.83,WSW,251,0.0,4.0,79,0.00,,---,0.25,VWS V14.01,2013-09-25 21:07:00,
2013-09-25 17:12:00,83.7,76.5,29.83,West,260,0.0,6.0,79,0.00,,---,0.25,VWS V14.01,2013-09-25 21:12:00,
2013-09-25 17:15:00,85.1,74.6,29.83,West,265,1.0,7.0,71,0.00,,---,0.25,VWS V15.00,2013-09-25 21:15:00,
2013-09-25 17:17:00,83.7,76.5,29.83,NE,42,0.0,2.0,79,0.00,,---,0.25,VWS V14.01,2013-09-25 21:17:00,
2013-09-25 17:22:00,83.6,76.8,29.83,West,266,0.0,9.0,80,0.00,,---,0.25,VWS V14.01,2013-09-25 21:22:00,
2013-09-25 17:27:00,83.6,76.8,29.83,WNW,283,0.0,9.0,80,0.00,,---,0.25,VWS V14.01,2013-09-25 21:27:00,
2013-09-25 17:30:00,84.1,75.3,29.82,ESE,108,0.0,5.0,75,0.00,,---,0.25,VWS V15.00,2013-09-25 21:30:00,
2013-09-25 17:32:00,83.8,77.0,29.83,West,260,1.0,3.0,80,0.00,,---,0.25,VWS V14.01,2013-09-25 21:32:00,
2013-09-25 17:37:00,84.1,77.6,29.83,WNW,297,1.0,4.0,81,0.00,,---,0.25,VWS V14.01,2013-09-25 21:37:00,
2013-09-25 17:42:00,84.7,77.8,29.83,SW,221,0.0,4.0,80,0.00,,---,0.25,VWS V14.01,2013-09-25 21:42:00,
2013-09-25 17:45:00,83.6,75.6,29.82,NW,314,1.0,5.0,77,0.00,,---,0.25,VWS V15.00,2013-09-25 21:45:00,
2013-09-25 17:47:00,84.9,77.3,29.83,WNW,289,0.0,1.0,78,0.00,,---,0.25,VWS V14.01,2013-09-25 21:47:00,
2013-09-25 17:52:00,84.9,77.3,29.83,West,271,0.0,4.0,78,0.00,,---,0.25,VWS V14.01,2013-09-25 21:52:00,
2013-09-25 17:57:00,85.0,77.8,29.83,WSW,258,0.0,4.0,79,0.00,,---,0.25,VWS V14.01,2013-09-25 21:57:00,
2013-09-25 18:00:00,83.6,76.0,29.83,West,276,4.0,7.0,78,0.00,,---,0.25,VWS V15.00,2013-09-25 22:00:00,
2013-09-25 18:02:00,84.8,77.2,29.83,West,275,0.0,0.0,78,0.00,,---,0.25,VWS V14.01,2013-09-25 22:02:00,
2013-09-25 18:07:00,84.4,77.2,29.83,West,281,3.0,4.0,79,0.00,,---,0.25,VWS V14.01,2013-09-25 22:07:00,
2013-09-25 18:12:00,84.3,77.1,29.83,WNW,283,0.0,4.0,79,0.00,,---,0.25,VWS V14.01,2013-09-25 22:12:00,
2013-09-25 18:15:00,83.7,76.5,29.83,NNW,330,2.0,6.0,79,0.00,,---,0.25,VWS V15.00,2013-09-25 22:15:00,
2013-09-25 18:17:00,84.2,77.0,29.83,West,274,0.0,3.0,79,0.00,,---,0.25,VWS V14.01,2013-09-25 22:17:00,
2013-09-25 18:22:00,84.2,77.0,29.83,NW,304,0.0,5.0,79,0.00,,---,0.25,VWS V14.01,2013-09-25 22:22:00,
2013-09-25 18:27:00,84.0,77.2,29.84,West,269,0.0,5.0,80,0.00,,---,0.25,VWS V14.01,2013-09-25 22:27:00,
2013-09-25 18:30:00,83.8,77.0,29.83,West,262,1.0,9.0,80,0.00,,---,0.25,VWS V15.00,2013-09-25 22:30:00,
2013-09-25 18:32:00,83.9,77.1,29.84,West,267,2.0,5.0,80,0.00,,---,0.25,VWS V14.01,2013-09-25 22:32:00,
2013-09-25 18:37:00,83.7,77.2,29.84,NNW,328,0.0,5.0,81,0.00,,---,0.25,VWS V14.01,2013-09-25 22:37:00,
2013-09-25 18:44:00,83.4,77.0,29.85,WNW,300,0.0,5.0,81,0.00,,---,0.25,VWS V14.01,2013-09-25 22:44:00,
2013-09-25 18:45:00,84.9,77.3,29.83,WNW,289,0.0,4.0,78,0.00,,---,0.25,VWS V15.00,2013-09-25 22:45:00,
2013-09-25 18:49:00,83.3,77.2,29.84,WNW,290,0.0,1.0,82,0.00,,---,0.25,VWS V14.01,2013-09-25 22:49:00,
2013-09-25 18:54:00,83.2,77.1,29.84,WNW,282,1.0,2.0,82,0.00,,---,0.25,VWS V14.01,2013-09-25 22:54:00,
2013-09-25 18:59:00,83.1,77.4,29.85,NW,305,0.0,3.0,83,0.00,,---,0.25,VWS V14.01,2013-09-25 22:59:00,
2013-09-25 19:00:00,84.8,77.2,29.83,West,275,0.0,4.0,78,0.00,,---,0.25,VWS V15.00,2013-09-25 23:00:00,
2013-09-25 19:04:00,82.9,76.8,29.85,NW,304,0.0,0.0,82,0.00,,---,0.25,VWS V14.01,2013-09-25 23:04:00,
2013-09-25 19:09:00,82.8,76.8,29.85,West,262,1.0,2.0,82,0.00,,---,0.25,VWS V14.01,2013-09-25 23:09:00,
2013-09-25 19:14:00,82.7,76.7,29.84,WNW,297,0.0,2.0,82,0.00,,---,0.25,VWS V14.01,2013-09-25 23:14:00,
2013-09-25 19:15:00,84.3,77.1,29.83,NW,320,2.0,5.0,79,0.00,,---,0.25,VWS V15.00,2013-09-25 23:15:00,
2013-09-25 19:19:00,82.4,76.4,29.85,WNW,297,0.0,0.0,82,0.00,,---,0.25,VWS V14.01,2013-09-25 23:19:00,
2013-09-25 19:24:00,82.2,76.5,29.84,WNW,296,0.0,0.0,83,0.00,,---,0.25,VWS V14.01,2013-09-25 23:24:00,
2013-09-25 19:29:00,81.9,76.6,29.84,WNW,285,0.0,1.0,84,0.00,,---,0.25,VWS V14.01,2013-09-25 23:29:00,
2013-09-25 19:30:00,83.9,77.1,29.84,WNW,286,0.0,5.0,80,0.00,,---,0.25,VWS V15.00,2013-09-25 23:30:00,
2013-09-25 19:34:00,81.8,76.5,29.84,WNW,285,0.0,0.0,84,0.00,,---,0.25,VWS V14.01,2013-09-25 23:34:00,
2013-09-25 19:39:00,81.7,77.1,29.84,West,267,0.0,1.0,86,0.00,,---,0.25,VWS V14.01,2013-09-25 23:39:00,
2013-09-25 19:44:00,81.5,76.9,29.84,West,266,0.0,1.0,86,0.00,,---,0.25,VWS V14.01,2013-09-25 23:44:00,
2013-09-25 19:45:00,83.3,77.2,29.85,WNW,282,0.0,5.0,82,0.00,,---,0.25,VWS V15.00,2013-09-25 23:45:00,
2013-09-25 19:49:00,81.3,76.7,29.84,West,266,0.0,0.0,86,0.00,,---,0.25,VWS V14.01,2013-09-25 23:49:00,
2013-09-25 19:54:00,81.1,76.5,29.84,West,266,0.0,1.0,86,0.00,,---,0.25,VWS V14.01,2013-09-25 23:54:00,
2013-09-25 19:59:00,80.9,76.7,29.85,West,266,0.0,1.0,87,0.00,,---,0.25,VWS V14.01,2013-09-25 23:59:00,
2013-09-25 20:00:00,83.0,76.9,29.85,NW,304,0.0,3.0,82,0.00,,---,0.25,VWS V15.00,2013-09-26 00:00:00,
2013-09-25 20:04:00,80.8,76.9,29.85,West,266,0.0,0.0,88,0.00,,---,0.25,VWS V14.01,2013-09-26 00:04:00,
2013-09-25 20:09:00,80.6,76.7,29.85,West,266,0.0,0.0,88,0.00,,---,0.25,VWS V14.01,2013-09-26 00:09:00,
2013-09-25 20:14:00,80.5,76.6,29.85,West,266,0.0,0.0,88,0.00,,---,0.25,VWS V14.01,2013-09-26 00:14:00,
2013-09-25 20:15:00,82.5,76.4,29.85,WNW,297,0.0,2.0,82,0.00,,---,0.25,VWS V15.00,2013-09-26 00:15:00,
2013-09-25 20:19:00,80.3,76.8,29.85,West,266,0.0,0.0,89,0.00,,---,0.25,VWS V14.01,2013-09-26 00:19:00,
2013-09-25 20:24:00,80.3,76.8,29.85,West,266,0.0,0.0,89,0.00,,---,0.25,VWS V14.01,2013-09-26 00:24:00,
2013-09-25 20:29:00,80.1,76.6,29.85,West,266,0.0,0.0,89,0.00,,---,0.25,VWS V14.01,2013-09-26 00:29:00,
2013-09-25 20:30:00,81.9,76.6,29.84,WNW,285,0.0,1.0,84,0.00,,---,0.25,VWS V15.00,2013-09-26 00:30:00,
2013-09-25 20:34:00,79.9,76.4,29.85,West,266,0.0,0.0,89,0.00,,---,0.25,VWS V14.01,2013-09-26 00:34:00,
2013-09-25 20:39:00,79.7,76.5,29.85,West,266,0.0,0.0,90,0.00,,---,0.25,VWS V14.01,2013-09-26 00:39:00,
2013-09-25 20:44:00,79.6,76.4,29.85,West,266,0.0,0.0,90,0.00,,---,0.25,VWS V14.01,2013-09-26 00:44:00,
2013-09-25 20:45:00,81.4,76.8,29.84,West,266,0.0,1.0,86,0.00,,---,0.25,VWS V15.00,2013-09-26 00:45:00,
2013-09-25 20:49:00,79.5,76.7,29.85,West,266,0.0,0.0,91,0.00,,---,0.25,VWS V14.01,2013-09-26 00:49:00,
2013-09-25 20:55:00,79.4,76.6,29.85,West,266,0.0,0.0,91,0.00,,---,0.25,VWS V14.01,2013-09-26 00:55:00,
2013-09-25 21:00:00,79.4,76.6,29.85,West,266,0.0,0.0,91,0.00,,---,0.25,VWS V14.01,2013-09-26 01:00:00,
2013-09-25 21:05:00,79.4,76.6,29.85,West,266,0.0,0.0,91,0.00,,---,0.25,VWS V14.01,2013-09-26 01:05:00,
2013-09-25 21:10:00,79.4,76.9,29.86,West,266,0.0,0.0,92,0.00,,---,0.25,VWS V14.01,2013-09-26 01:10:00,
2013-09-25 21:15:00,79.3,76.8,29.86,West,266,0.0,0.0,92,0.00,,---,0.25,VWS V14.01,2013-09-26 01:15:00,
2013-09-25 21:20:00,79.1,76.6,29.86,West,266,0.0,0.0,92,0.00,,---,0.25,VWS V14.01,2013-09-26 01:20:00,
2013-09-25 21:25:00,79.0,76.5,29.86,West,266,0.0,0.0,92,0.00,,---,0.25,VWS V14.01,2013-09-26 01:25:00,
2013-09-25 21:30:00,79.0,76.5,29.86,West,266,0.0,0.0,92,0.00,,---,0.25,VWS V14.01,2013-09-26 01:30:00,
2013-09-25 21:35:00,78.9,76.1,29.86,West,266,0.0,0.0,91,0.00,,---,0.25,VWS V14.01,2013-09-26 01:35:00,
2013-09-25 21:40:00,78.9,76.4,29.86,West,266,0.0,0.0,92,0.00,,---,0.25,VWS V14.01,2013-09-26 01:40:00,
2013-09-25 21:45:00,78.7,76.2,29.86,West,266,0.0,0.0,92,0.00,,---,0.25,VWS V14.01,2013-09-26 01:45:00,
2013-09-25 21:50:00,78.7,76.2,29.86,West,267,0.0,0.0,92,0.00,,---,0.25,VWS V14.01,2013-09-26 01:50:00,
2013-09-25 21:55:00,78.7,76.2,29.87,West,266,0.0,0.0,92,0.00,,---,0.25,VWS V14.01,2013-09-26 01:55:00,
2013-09-25 22:00:00,78.7,76.2,29.87,West,267,0.0,0.0,92,0.00,,---,0.25,VWS V14.01,2013-09-26 02:00:00,
2013-09-25 22:05:00,78.5,76.0,29.86,West,266,0.0,0.0,92,0.00,,---,0.25,VWS V14.01,2013-09-26 02:05:00,
2013-09-25 22:10:00,78.4,76.2,29.87,West,266,0.0,0.0,93,0.00,,---,0.25,VWS V14.01,2013-09-26 02:10:00,
2013-09-25 22:15:00,79.2,76.7,29.86,West,266,0.0,0.0,92,0.00,,---,0.25,VWS V15.00,2013-09-26 02:15:00,
2013-09-25 22:16:00,78.3,76.1,29.87,West,267,0.0,0.0,93,0.00,,---,0.25,VWS V14.01,2013-09-26 02:16:00,
2013-09-25 22:21:00,78.3,76.1,29.87,West,267,0.0,0.0,93,0.00,,---,0.25,VWS V14.01,2013-09-26 02:21:00,
2013-09-25 22:26:00,78.2,76.0,29.87,West,267,0.0,0.0,93,0.00,,---,0.25,VWS V14.01,2013-09-26 02:26:00,
2013-09-25 22:30:00,78.9,76.4,29.86,West,266,0.0,0.0,92,0.00,,---,0.25,VWS V15.00,2013-09-26 02:30:00,
2013-09-25 22:31:00,78.0,75.8,29.87,West,266,0.0,0.0,93,0.00,,---,0.25,VWS V14.01,2013-09-26 02:31:00,
2013-09-25 22:36:00,78.0,76.1,29.87,West,266,0.0,0.0,94,0.00,,---,0.25,VWS V14.01,2013-09-26 02:36:00,
2013-09-25 22:41:00,77.9,76.0,29.87,West,266,0.0,0.0,94,0.00,,---,0.25,VWS V14.01,2013-09-26 02:41:00,
2013-09-25 22:45:00,78.7,76.2,29.86,West,267,0.0,0.0,92,0.00,,---,0.25,VWS V15.00,2013-09-26 02:45:00,
2013-09-25 22:46:00,77.7,75.8,29.86,West,266,0.0,0.0,94,0.00,,---,0.25,VWS V14.01,2013-09-26 02:46:00,
2013-09-25 22:51:00,77.6,75.7,29.86,West,267,0.0,0.0,94,0.00,,---,0.25,VWS V14.01,2013-09-26 02:51:00,
2013-09-25 22:56:00,77.4,75.5,29.86,West,266,0.0,0.0,94,0.00,,---,0.25,VWS V14.01,2013-09-26 02:56:00,
2013-09-25 23:00:00,78.6,76.1,29.87,West,266,0.0,0.0,92,0.00,,---,0.25,VWS V15.00,2013-09-26 03:00:00,
2013-09-25 23:01:00,77.5,76.0,29.86,West,266,0.0,0.0,95,0.00,,---,0.25,VWS V14.01,2013-09-26 03:01:00,
2013-09-25 23:06:00,77.4,75.9,29.86,West,267,0.0,0.0,95,0.00,,---,0.25,VWS V14.01,2013-09-26 03:06:00,
2013-09-25 23:11:00,77.3,75.8,29.86,West,267,0.0,0.0,95,0.00,,---,0.25,VWS V14.01,2013-09-26 03:11:00,
2013-09-25 23:15:00,78.4,76.2,29.87,West,267,0.0,0.0,93,0.00,,---,0.25,VWS V15.00,2013-09-26 03:15:00,
2013-09-25 23:16:00,77.2,75.7,29.86,West,267,0.0,0.0,95,0.00,,---,0.25,VWS V14.01,2013-09-26 03:16:00,
2013-09-25 23:21:00,77.0,75.5,29.86,West,266,0.0,0.0,95,0.00,,---,0.25,VWS V14.01,2013-09-26 03:21:00,
2013-09-25 23:26:00,77.0,75.5,29.86,West,266,0.0,0.0,95,0.00,,---,0.25,VWS V14.01,2013-09-26 03:26:00,
2013-09-25 23:30:00,78.0,75.8,29.87,West,266,0.0,0.0,93,0.00,,---,0.25,VWS V15.00,2013-09-26 03:30:00,
2013-09-25 23:31:00,77.2,76.0,29.86,West,266,0.0,0.0,96,0.00,,---,0.25,VWS V14.01,2013-09-26 03:31:00,
2013-09-25 23:36:00,77.3,76.1,29.86,West,267,0.0,0.0,96,0.00,,---,0.25,VWS V14.01,2013-09-26 03:36:00,
2013-09-25 23:41:00,77.3,76.1,29.86,West,266,0.0,0.0,96,0.00,,---,0.25,VWS V14.01,2013-09-26 03:41:00,
2013-09-25 23:45:00,77.7,75.8,29.86,West,266,0.0,0.0,94,0.00,,---,0.25,VWS V15.00,2013-09-26 03:45:00,
2013-09-25 23:46:00,77.2,76.0,29.86,West,266,0.0,0.0,96,0.00,,---,0.25,VWS V14.01,2013-09-26 03:46:00,
2013-09-25 23:51:00,77.2,76.0,29.86,West,267,0.0,0.0,96,0.00,,---,0.25,VWS V14.01,2013-09-26 03:51:00,
2013-09-25 23:57:00,77.2,76.0,29.86,West,267,0.0,0.0,96,0.00,,---,0.25,VWS V14.01,2013-09-26 03:57:00,